Weather History for Hanford, CA

Change the Weather History Date:

Tuesday, February 28, 2012

  Actual Average Record
Temperature  
Mean Temperature 45 °F 53 °F  
Max Temperature 57 °F 65 °F 75 °F (2002)
Min Temperature 33 °F 41 °F 29 °F (2011)
Degree Days  
Heating Degree Days 20    
Month to date heating degree days 410  
Since 1 July heating degree days 2171  
Cooling Degree Days 0    
Month to date cooling degree days 0  
Year to date cooling degree days 0  
Moisture  
Dew Point 37 °F    
Average Humidity 70    
Maximum Humidity 100    
Minimum Humidity 40    
Precipitation  
Precipitation 0.00 in 0.06 in 0.80 in (2014)
Month to date precipitation 0.35 1.73  
Year to date precipitation 0.96 3.77  
Since 1 July precipitation 2.20 7.11  
Snow  
Snow 0.00 in - - ()
Month to date snowfall 0.0  
Since 1 July snowfall 0.0  
Snow Depth 0.00 in    
Sea Level Pressure  
Sea Level Pressure 30.16 in    
Wind  
Wind Speed 3 mph (SE)    
Max Wind Speed 8 mph    
Max Gust Speed -    
Visibility 5 miles    
Events Fog    
T = Trace of Precipitation, MM = Missing Value Source: NWS Daily Summary

Daily Weather History Graph

Daily Weather History Graph

Search for Another Location

Airport:

Trip Planner

Search our weather history database for the weather conditions in past years. The results will help you decide how hot, cold, wet, or windy it might be!

Date:

Astronomy

Feb. 28, 2012 Rise Set
Actual Time 6:30 AM PST 5:51 PM PST
Civil Twilight 6:04 AM PST 6:17 PM PST
Nautical Twilight 5:35 AM PST 6:47 PM PST
Astronomical Twilight 5:05 AM PST 7:17 PM PST
Moon 9:54 AM PST (2/28) No Moon Set
Length of Visible Light 12h 12m
Length of Day
11h 21m
Waxing Crescent, 39% of the Moon is Illuminated
Feb 28
Waxing Crescent
Feb 29
First Quarter
Mar 8
Full
Mar 14
Last Quarter
Mar 22
New

Hourly Weather History & Observations

Time (PST) Temp. Windchill Dew Point Humidity Pressure Visibility Wind Dir Wind Speed Gust Speed Precip Events Conditions
12:53 AM 45.0 °F - 42.1 °F 90% 30.01 in 10.0 mi Calm Calm - N/A   Overcast
1:53 AM 43.0 °F - 41.0 °F 93% 30.03 in 6.0 mi Calm Calm - N/A   Partly Cloudy
2:19 AM 39.2 °F - 37.4 °F 93% 30.03 in 1.0 mi Calm Calm - N/A   Partly Cloudy
2:22 AM 39.2 °F - 37.4 °F 93% 30.03 in 0.5 mi Calm Calm - N/A Fog Fog
2:29 AM 39.2 °F - 37.4 °F 93% 30.04 in 0.2 mi Calm Calm - N/A Fog Fog
2:39 AM 41.0 °F - 39.2 °F 93% 30.04 in 0.8 mi Calm Calm - N/A   Mostly Cloudy
2:53 AM 39.9 °F - 39.0 °F 97% 30.06 in 1.2 mi Calm Calm - N/A   Overcast
3:05 AM 39.2 °F - 37.4 °F 93% 30.05 in 0.2 mi Calm Calm - N/A Fog Fog
3:20 AM 39.2 °F - 39.2 °F 100% 30.06 in 0.8 mi Calm Calm - N/A   Scattered Clouds
3:29 AM 37.4 °F - 37.4 °F 100% 30.06 in 0.5 mi Calm Calm - N/A Fog Fog
3:36 AM 37.4 °F - 37.4 °F 100% 30.07 in 0.2 mi Calm Calm - N/A Fog Fog
3:53 AM 37.0 °F - 36.0 °F 96% 30.09 in 0.2 mi Calm Calm - N/A Fog Fog
4:53 AM 36.0 °F - 35.1 °F 97% 30.12 in 0.2 mi Calm Calm - N/A Fog Fog
5:50 AM 33.8 °F 30.8 °F 33.8 °F 100% 30.13 in 0.2 mi South 3.5 mph - N/A Fog Fog
5:53 AM 34.0 °F - 33.1 °F 96% 30.14 in 0.2 mi Calm Calm - N/A Fog Fog
6:19 AM 33.8 °F - 33.8 °F 100% 30.15 in 0.5 mi Calm Calm - N/A Fog Fog
6:45 AM 33.8 °F - 33.8 °F 100% 30.16 in 0.2 mi Calm Calm - N/A Fog Fog
6:53 AM 33.1 °F 30.0 °F 33.1 °F 100% 30.17 in 0.2 mi South 3.5 mph - N/A Fog Fog
7:08 AM 33.8 °F 30.8 °F 33.8 °F 100% 30.17 in 1.0 mi South 3.5 mph - N/A   Clear
7:12 AM 33.8 °F 30.8 °F 33.8 °F 100% 30.18 in 3.0 mi SW 3.5 mph - N/A   Clear
7:53 AM 39.0 °F - 39.0 °F 100% 30.22 in 8.0 mi Calm Calm - N/A   Clear
8:53 AM 46.0 °F - 39.9 °F 79% 30.25 in 10.0 mi Calm Calm - N/A   Clear
9:53 AM 48.9 °F - 42.1 °F 77% 30.26 in 10.0 mi SE 6.9 mph - N/A   Clear
10:53 AM 52.0 °F - 39.9 °F 63% 30.28 in 10.0 mi South 8.1 mph - N/A   Mostly Cloudy
11:06 AM 51.8 °F - 39.2 °F 62% 30.27 in 10.0 mi Variable 3.5 mph - N/A   Scattered Clouds
12:53 PM 54.0 °F - 37.0 °F 53% 30.25 in 10.0 mi North - - N/A   Mostly Cloudy
1:53 PM 55.0 °F - 35.1 °F 47% 30.24 in 10.0 mi Calm Calm - N/A   Partly Cloudy
2:53 PM 57.0 °F - 34.0 °F 42% 30.23 in 10.0 mi Variable 4.6 mph - N/A   Clear
3:53 PM 57.0 °F - 33.1 °F 40% 30.23 in 10.0 mi ESE 4.6 mph - N/A   Clear
4:53 PM 55.9 °F - 36.0 °F 47% 30.23 in 10.0 mi ENE 6.9 mph - N/A   Clear
5:53 PM 50.0 °F - 37.0 °F 61% 30.24 in 10.0 mi Variable 5.8 mph - N/A   Clear
6:53 PM 46.9 °F - 37.0 °F 68% 30.25 in 10.0 mi East 5.8 mph - N/A   Clear
7:53 PM 45.0 °F 42.6 °F 37.0 °F 74% 30.25 in 10.0 mi ENE 4.6 mph - N/A   Clear
8:53 PM 45.0 °F 43.5 °F 36.0 °F 71% 30.26 in 9.0 mi ESE 3.5 mph - N/A   Clear
9:53 PM 45.0 °F 43.5 °F 35.1 °F 68% 30.26 in 10.0 mi SE 3.5 mph - N/A   Clear
10:53 PM 42.1 °F 39.2 °F 36.0 °F 79% 30.27 in 9.0 mi SW 4.6 mph - N/A   Clear
11:53 PM 42.1 °F 40.2 °F 36.0 °F 79% 30.27 in 8.0 mi SSE 3.5 mph - N/A   Clear